Starlink 33941

operational
NORAD ID: 63765 Int'l Des: 2025-089 Owner: SPXS Country: US Constellation: starlink
LEOCIRCULAR

About Starlink 33941

Description loading...

Live Position

Loading 3D Globe...

Upcoming Passes

Altitude History

Altitude vs Time

uPlot chart will show altitude changes over time

Two-Line Element Set

1 63765U 25089Q 25305.97605537 .00038448 00000-0 13994-2 0 9993
2 63765 43.0003 46.6446 0000912 5.9377 354.1485 15.27581257 29411
Epoch: Nov 1, 2025 • Age: 26 hours

Current Status

Altitude 485.4 km
Velocity 7.63 km/s
Sub-Earth Point 40.41°N, 97.75°E
Launch Date Apr 29, 2025
Age 0.5 years
Type internet

Technical Details

Classification Payload
Mass 575.00 kg
Dry Mass 530.00 kg
Total Mass 575.00 kg
Length 0.30 m
Diameter 4.10 m
Span 29.00 m
Shape Box + pan
Manufacturer SPXS
Bus Type Starlink V2MO
Phase Status In Orbit
Owner/State SPXS/US

Large Constellations

Loading constellations...